Weather History for KWRL - March, 2013

Change the Weather History Date:

Sunday, March 24, 2013

  Actual Average Record
Temperature  
Mean Temperature 25 °F 40 °F  
Max Temperature 34 °F 54 °F 76 °F (1993)
Min Temperature 16 °F 25 °F -6 °F (1965)
Degree Days  
Heating Degree Days 40 26  
Month to date heating degree days 708 714  
Since 1 July heating degree days 6290 6715  
Cooling Degree Days 0 0  
Month to date cooling degree days 0 0  
Year to date cooling degree days 0 0  
Moisture  
Dew Point 6 °F    
Average Humidity 53    
Maximum Humidity 80    
Minimum Humidity 25    
Precipitation  
Precipitation 0.00 in 0.02 in 0.12 in (2005)
Month to date precipitation 0.10 0.34  
Year to date precipitation 0.49 0.76  
Sea Level Pressure  
Sea Level Pressure 30.30 in    
Wind  
Wind Speed 10 mph (NW)    
Max Wind Speed 29 mph    
Max Gust Speed 36 mph    
Visibility 10 miles    
Events      
T = Trace of Precipitation, MM = Missing Value Source: NWS Daily Summary

Daily Weather History Graph

Daily Weather History Graph

Search for Another Location

Airport or City:

Trip Planner

Search our weather history database for the weather conditions in past years. The results will help you decide how hot, cold, wet, or windy it might be!

Date:

Astronomy

Mar. 24, 2013 Rise Set
Actual Time 7:07 AM MDT 7:29 PM MDT
Civil Twilight 6:38 AM MDT 7:58 PM MDT
Nautical Twilight 6:04 AM MDT 8:32 PM MDT
Astronomical Twilight 5:29 AM MDT 9:07 PM MDT
Moon 4:56 PM MDT (3/24) 5:24 AM MDT (3/24)
Length of Visible Light 13h 20m
Length of Day
12h 22m
Waxing Gibbous, 92% of the Moon is Illuminated
Mar 24
Waxing Gibbous
Mar 27
Full
Apr 2
Last Quarter
Apr 10
New
Apr 18
First Quarter

Hourly Weather History & Observations

Time (MDT) Temp. Windchill Dew Point Humidity Pressure Visibility Wind Dir Wind Speed Gust Speed Precip Events Conditions
12:53 AM 25.0 °F 19.3 °F 14.0 °F 63% 30.28 in 10.0 mi WNW 4.6 mph - N/A   Overcast
1:53 AM 21.9 °F 14.5 °F 9.0 °F 58% 30.28 in 10.0 mi WNW 5.8 mph - N/A   Overcast
2:53 AM 21.0 °F 13.4 °F 9.0 °F 60% 30.28 in 10.0 mi NW 5.8 mph - N/A   Mostly Cloudy
3:53 AM 19.9 °F 12.1 °F 9.0 °F 62% 30.29 in 10.0 mi North 5.8 mph - N/A   Mostly Cloudy
4:53 AM 19.9 °F - 10.0 °F 65% 30.28 in 10.0 mi Calm Calm - N/A   Overcast
5:53 AM 18.0 °F - 10.0 °F 71% 30.30 in 10.0 mi Calm Calm - N/A   Overcast
6:53 AM 16.0 °F - 10.0 °F 77% 30.31 in 10.0 mi Calm Calm - N/A   Overcast
7:53 AM 19.0 °F 11.1 °F 10.0 °F 68% 30.32 in 10.0 mi WSW 5.8 mph - N/A   Overcast
8:53 AM 21.9 °F 14.5 °F 9.0 °F 58% 30.32 in 10.0 mi West 5.8 mph - N/A   Clear
9:53 AM 25.0 °F 16.3 °F 8.1 °F 49% 30.31 in 10.0 mi NW 8.1 mph - N/A   Clear
10:53 AM 28.9 °F 17.7 °F 6.1 °F 38% 30.31 in 10.0 mi NNW 15.0 mph 21.9 mph N/A   Partly Cloudy
11:53 AM 28.9 °F 16.1 °F 3.0 °F 33% 30.30 in 10.0 mi North 19.6 mph 26.5 mph N/A   Mostly Cloudy
12:53 PM 30.0 °F 16.0 °F 1.9 °F 30% 30.29 in 10.0 mi NW 25.3 mph 35.7 mph N/A   Mostly Cloudy
1:53 PM 30.0 °F 16.6 °F 1.9 °F 30% 30.30 in 10.0 mi NNW 23.0 mph 32.2 mph N/A   Overcast
2:53 PM 30.9 °F 20.7 °F 1.9 °F 29% 30.28 in 10.0 mi North 13.8 mph 27.6 mph N/A   Mostly Cloudy
3:53 PM 33.1 °F 22.2 °F 1.9 °F 27% 30.27 in 10.0 mi NNW 17.3 mph 25.3 mph N/A   Partly Cloudy
4:53 PM 32.0 °F 20.5 °F 3.0 °F 29% 30.29 in 10.0 mi North 18.4 mph 25.3 mph N/A   Overcast
5:53 PM 32.0 °F 21.2 °F 3.0 °F 29% 30.30 in 10.0 mi NNW 16.1 mph 26.5 mph N/A   Overcast
6:53 PM 30.0 °F 19.5 °F 3.0 °F 32% 30.31 in 10.0 mi North 13.8 mph - N/A   Mostly Cloudy
7:53 PM 28.0 °F 19.3 °F 3.0 °F 34% 30.32 in 10.0 mi NNW 9.2 mph - N/A   Mostly Cloudy
8:53 PM 26.1 °F 16.8 °F 3.9 °F 39% 30.33 in 10.0 mi NW 9.2 mph - N/A   Scattered Clouds
9:53 PM 24.1 °F 16.0 °F 5.0 °F 44% 30.33 in 10.0 mi West 6.9 mph - N/A   Overcast
10:53 PM 21.9 °F 12.5 °F 6.1 °F 51% 30.33 in 10.0 mi West 8.1 mph - N/A   Clear
11:53 PM 19.0 °F 10.0 °F 7.0 °F 59% 30.35 in 10.0 mi SW 6.9 mph - N/A   Clear